Hourly Data Report for April 10, 2019

OTTAWA INTL A
ONTARIO
Current Station Operator: NAVCAN

45°19'00.000" N
75°40'00.000" W
114.90 m
6106001
71628
YOW

Download Data

Hourly Data (April 2019)
Hourly Data Report for April 10, 2019
TIME
LST
Temp Definition
°C
Dew Point Definition
°C
Rel Hum Definition
%
Precip. Amount Definition
mm

Wind Dir Definition
10's deg

Wind Spd Definition
km/h
Visibility Definition
km
Stn Press Definition
kPa
Hmdx Definition


Wind Chill Definition


Weather Definition


00:00 -3.1 -4.3 91   30 12 24.1 99.45   -8 LegendNANA
01:00 -3.7 -4.6 94   30 10 24.1 99.48   -8 Mainly Clear
02:00 -5.0 -5.8 94   30 13 24.1 99.51   -10 LegendNANA
03:00 -5.9 -6.8 94   31 14 24.1 99.57   -11 LegendNANA
04:00 -6.0 -6.8 94   33 13 24.1 99.64   -11 Mainly Clear
05:00 -3.1 -4.8 88   32 18 24.1 99.71   -9 LegendNANA
06:00 -2.9 -5.5 83   33 20 24.1 99.84   -9 LegendNANA
07:00 -3.0 -5.3 85   31 15 24.1 99.93   -8 Mostly Cloudy
08:00 -2.1 -5.4 79   33 16 24.1 100.00   -7 LegendNANA
09:00 -0.7 -5.1 72   34 17 24.1 100.01   -6 LegendNANA
10:00 0.3 -4.5 70   32 16 24.1 100.07     Clear
11:00 1.5 -3.9 68   31 15 24.1 100.10     LegendNANA
12:00 2.4 -5.8 55   31 13 24.1 100.09     LegendNANA
13:00 3.3 -7.2 46   32 18 24.1 100.14     Mainly Clear
14:00 2.7 -5.0 57   30 19 24.1 100.18     LegendNANA
15:00 2.7 -4.3 60   28 27 24.1 100.23     LegendNANA
16:00 3.5 -5.0 54   29 28 24.1 100.21     Mostly Cloudy
17:00 2.8 -7.1 48   27 27 24.1 100.28     LegendNANA
18:00 2.4 -7.2 49   34 21 24.1 100.37     LegendNANA
19:00 1.5 -8.1 49   33 18 24.1 100.41     Mainly Clear
20:00 -0.5 -7.2 61   32 10 24.1 100.49   -4 LegendNANA
21:00 -1.7 -7.8 63   27 10 24.1 100.60   -5 LegendNANA
22:00 -1.0 -7.3 62   29 16 24.1 100.67   -6 Clear
23:00 -2.2 -7.1 69   31 17 24.1 100.70   -8 LegendNANA

Notes on Data Quality.

Legend

  • E = Estimated
  • M = Missing
  • NA = Not Available*
  • [empty] = Indicates an unobserved value
Date modified: